Regional Weather Roundup
Issued by NWS

Current Version | Previous Version | Text Only | Print | Product List | Glossary On
Versions: 1 2 3 4 5 6 7 8 9 10 11 12 13 14 15 16 17 18 19 20 21 22 23 24 25 26 27 28 29 30 31 32 33 34 35 36 37 38 39 40 41 42 43 44 45 46 47 48 49 50
191
ASUS42 KTBW 122216
RWRFL
FLORIDA REGIONAL WEATHER ROUNDUP
NATIONAL WEATHER SERVICE TAMPA BAY RUSKIN FL
500 PM EST FRI FEB 12 2016

NOTE: "FAIR" INDICATES FEW OR NO CLOUDS BELOW 12,000 FEET WITH NO
SIGNIFICANT WEATHER AND/OR OBSTRUCTIONS TO VISIBILITY.


FLZ001>010-012>015-112-114-115-122300-
PANHANDLE FLORIDA

CITY           SKY/WX    TMP DP  RH WIND       PRES   REMARKS
PENSACOLA      SUNNY     71  55  56 SW15      30.13S
PENSACOLA NAS  MOSUNNY   70  56  61 VRB7      30.13F
MILTON NAS     MOSUNNY   73  50  44 NW9       30.12
CRESTVIEW      SUNNY     74  47  38 W13G21    30.12S
DUKE FIELD     MOSUNNY   74  47  38 W12G23    30.10S
VALPARAISO     MOSUNNY   69  58  67 W13       30.11R
MARY ESTHER    SUNNY     66  56  71 SW12G20   30.11S
TRI COUNTY     FAIR      72  49  44 W6        30.10R
PANAMA CITY    FAIR      68  57  68 SW16      30.11S
TYNDALL AFB    MOSUNNY   67  59  76 W15       30.14S
APALACHICOLA   MOSUNNY   68  58  70 W17G25    30.16S

STATION/POSITION SKY/WX   TEMP    WIND        PRES    WAVE   SWELL
                          AIR SEA DIR/SP/G            HT/PER HT/PER
                          (F)     (DEG/KT/KT) (MB)    (FT/S) (FT/S)
30.1N   87.6W              65 66  250/ 17/ 23 1020.1F   3/ 4
28.8N   86.0W              68 70  270/ 16/ 19 1022.6R   4/ 6
PANAMA CITY BEAC           63 63  260/ 18/ 20 1020.6F
CAPE SAN BLAS    NOT AVBL
TOWER C          NOT AVBL
28.5N   84.5W              69 67  260/ 14/ 17 1022.2F   4/ 6

$$
FLZ011-016>038-118-127-128-134-139-239-122300-
NORTH FLORIDA

CITY           SKY/WX    TMP DP  RH WIND       PRES   REMARKS
MARIANNA       SUNNY     74  49  41 W16       30.08S
TALLAHASSEE    MOSUNNY   73  52  47 SW16      30.10S
PERRY          SUNNY     69  56  64 SW18G31   30.14R
LIVE OAK         N/A     73  55  53 SW10G20   30.12R
CROSS CITY       N/A     69  55  60 W16G28    30.15S
LAKE CITY      FAIR      70  54  56 SW20G28   30.11R
GAINESVILLE    SUNNY     70  51  51 W21G28    30.13S
WILLISTON      FAIR      72  57  60 SW17G25   30.16S
KEYSTONE HEIGH FAIR      72  46  40 W16G29    30.11R
PALATKA        FAIR      72  50  46 W18G26    30.12S
MAYPORT NAS    MOSUNNY   73  48  41 SW16G24   30.06R
JACKSONVILLE   MOSUNNY   72  50  45 W18G28    30.06R
JAX NAS        MOSUNNY   75  47  36 W21G35    30.08R
JAX CRAIG      SUNNY     74  47  38 W17       30.07R
JAX CECIL      SUNNY     73  48  40 SW23G35   30.09R
FERNANDINA BEA FAIR      75  46  35 W14G28    30.04R
ST AUGUSTINE   SUNNY     73  49  42 SW17G30   30.08S
PALM COAST     SUNNY     72  52  49 SW17G29   30.11F

STATION/POSITION SKY/WX   TEMP    WIND        PRES    WAVE   SWELL
                          AIR SEA DIR/SP/G            HT/PER HT/PER
                          (F)     (DEG/KT/KT) (MB)    (FT/S) (FT/S)
SHELL POINT                68     250/ 18/ 21 1018.6
KEATON BEACH               60     240/ 17/ 18 1020.6R
CEDAR KEY                  62     230/  8/ 11 1022.3F
FERNANDINA                 72 56  250/ 14/ 19 1017.3S
30.7N   81.3W                 56                N/A     3/ 4
MAYPORT                    73 57  240/ 23/ 27 1017.1F
31.4N   80.9W              60 54  280/  4/  4 1017.2R   3/ 6   3/ 6
ST AUGUSTINE               72 59  240/ 15/ 20 1019.4R

$$
FLZ040-043>046-052-053-057-058-063-144-122300-
INTERIOR CENTRAL FLORIDA

CITY           SKY/WX    TMP DP  RH WIND       PRES   REMARKS
OCALA          PTSUNNY   70  52  52 W16G23    30.17S
THE VILLAGES     N/A     70  55  60 SW15G24   30.08R
LEESBURG       MOSUNNY   70  52  52 W14G23    30.18S
SANFORD        SUNNY     73  48  41 W17       30.15S
ORLANDO EXEC   SUNNY     73  48  41 W17G24    30.16S
ORLANDO INTL   MOSUNNY   73  49  42 W16       30.17S
KISSIMMEE      MOSUNNY   73  46  38 W14G21    30.18S
WINTER HAVEN   MOSUNNY   71  50  47 W14G21    30.20S
LAKELAND       SUNNY     70  54  56 W13       30.21S
BARTOW         SUNNY     72  50  46 SW14      30.21S
OKEECHOBEE     SUNNY     70  45  40 SE6       30.20S

$$
FLZ041-047-054-059-064-141-147-122300-
EAST CENTRAL FLORIDA

CITY           SKY/WX    TMP DP  RH WIND       PRES   REMARKS
ORMOND BEACH   MOSUNNY   72  50  46 W17G25    30.13S
DAYTONA BEACH  MOSUNNY   72  50  45 W22       30.13S
DELAND           N/A     72  50  46 W14G24    30.16R
NEW SMYRNA BEA MOSUNNY   72  48  43 W23G31    30.13S
JFK SPACE CTR  SUNNY     73  50  45 SW13      30.14S
TITUSVILLE     MOSUNNY   73  45  35 SW20      30.16S
CAPE CANAVERAL SUNNY     74  47  39 SW13      30.14S
PATRICK AFB    SUNNY     73  46  38 SW13      30.16S
MELBOURNE      SUNNY     73  41  31 W15       30.17S
VERO BEACH     SUNNY     73  37  27 W10       30.19R
FT PIERCE      SUNNY     71  42  35 SW9       30.20R
STUART         SUNNY     75  36  23 W9        30.21R

STATION/POSITION SKY/WX   TEMP    WIND        PRES    WAVE   SWELL
                          AIR SEA DIR/SP/G            HT/PER HT/PER
                          (F)     (DEG/KT/KT) (MB)    (FT/S) (FT/S)
28.5N   80.2W              69 75  190/ 16/ 17 1021.2F
28.9N   78.5W              69 72              1021.1F
TRIDENT PIER               72 63  210/ 12/ 15 1021.0F
28.4N   80.5W                 64                N/A     1/ 5
27.5N   80.2W                 70                N/A     1/13

$$
FLZ050-056-061-142-242-148-248-149-249-151-251-155-255-
160-260-122300-
WEST CENTRAL FLORIDA

CITY           SKY/WX    TMP DP  RH WIND       PRES   REMARKS
CRYSTAL RIVER  PTSUNNY   68  55  64 SW10G16   30.19S
INVERNESS      FAIR      68  55  64 W12G21    30.19F
BROOKSVILLE    SUNNY     69  53  56 W15G23    30.21F
ZEPHYRHILLS    FAIR      70  50  49 W12G17    30.21S
CLEARWATER AIR FAIR      66  54  63 SW9       30.22S
ST PETE CLEARW SUNNY     68  54  60 W12       30.22F
TAMPA INTL     MOSUNNY   66  56  70 SW9       30.22S
TAMPA EXEC     SUNNY     72  52  49 W5        30.22S
PLANT CITY     SUNNY     72  55  56 W10       30.22S
MACDILL AFB    SUNNY     67  60  78 SW8       30.22S
PETER O KNIGHT SUNNY     72  57  60 W7        30.22S
ST PETERSBURG  SUNNY     66  54  65 W10       30.21S
SARASOTA       SUNNY     64  55  72 SW7       30.22S
VENICE         FAIR      64  55  72 W7        30.25S

STATION/POSITION SKY/WX   TEMP    WIND        PRES    WAVE   SWELL
                          AIR SEA DIR/SP/G            HT/PER HT/PER
                          (F)     (DEG/KT/KT) (MB)    (FT/S) (FT/S)
CEDAR KEY                  62     230/  8/ 11 1022.3F
28.5N   84.5W              69 67  260/ 14/ 17 1022.2F   4/ 6
27.3N   84.2W                 71                N/A     2/ 5
CLEARWATER BEACH           60 58  190/ 12/ 13 1023.4F
MIDDLE TAMPA BAY           61     240/  8/  9 1023.8F
VENICE                     65 63  260/  4/  5 1023.5R

$$
FLZ066-069-070-075>078-162-262-165-265-122300-
SOUTHWEST FLORIDA AND KEYS

CITY           SKY/WX    TMP DP  RH WIND       PRES   REMARKS
PUNTA GORDA    SUNNY     70  43  37 NW12      30.24R
FT MYERS       SUNNY     70  37  29 W12       30.22R
SOUTHWEST INTL SUNNY     72  38  29 W7        30.22R
NAPLES         SUNNY     68  51  54 W10       30.22R
MARCO ISLAND   SUNNY     70  43  37 S6        30.22R
MARATHON       SUNNY     70  58  65 NE10      30.20S
KEY WEST NAS   MOSUNNY   70  58  65 N12       30.20S
KEY WEST INTL  SUNNY     70  60  70 N13       30.20F

STATION/POSITION SKY/WX   TEMP    WIND        PRES    WAVE   SWELL
                          AIR SEA DIR/SP/G            HT/PER HT/PER
                          (F)     (DEG/KT/KT) (MB)    (FT/S) (FT/S)
VENICE                     65 63  260/  4/  5 1023.5R
NAPLES                        66              1023.0F
26.0N   85.6W              71 80   50/  2/  2 1024.2S   1/ 5   2/ 5
DRY TORTUGAS     NOT AVBL
SAND KEY                   67      30/ 16/ 18 1022.8F
LONG KEY                   67 65   40/  8/  9 1023.4R
MOLASSES REEF              71 77   70/  9/ 10 1022.5S

$$
FLZ067-068-071>074-168-172>174-122300-
SOUTHEAST FLORIDA

CITY           SKY/WX    TMP DP  RH WIND       PRES   REMARKS
W PALM BEACH   MOSUNNY   70  54  56 SE9       30.21R
BOCA RATON     SUNNY     72  55  56 SE6       30.20S
FT LAUDER-EXEC MOSUNNY   71  54  54 SE9       30.19S
FT LAUDERDALE  MOSUNNY   71  57  61 E12       30.19F
POMPANO BEACH  SUNNY     71  59  65 SE9       30.20S
PEMBROKE PINES SUNNY     73  56  54 E8        30.20F
OPA LOCKA      MOSUNNY   74  56  53 E8        30.20S
MIAMI          MOSUNNY   72  56  57 E9        30.20S
WEST KENDALL   SUNNY     71  55  56 SE9       30.20S
HOMESTEAD      SUNNY     72  52  48 E7        30.20S

STATION/POSITION SKY/WX   TEMP    WIND        PRES    WAVE   SWELL
                          AIR SEA DIR/C1F1M1C2F2M2C3F3C4F4M3C5F5M4C6F6M5C7F7M6C8!



USA.gov is the U.S. government's official web portal to all federal, state and local government web resources and services.